"read_dt","SO2 (ppb)","flags","PMT voltage (V)","lamp voltage (V)","lamp intensity (Hz)","internal temp (C)","react chamber temp (C)","sample flow (l/min)","pres (mmHg)","SO2 bkg (ppb)","SO2 coefficient"
2018-07-04 00:00:00,-2.858E-01,4C000000*,-702.6,971.469,89,28.8,44.8,0.405,730.5,2.2,1.050*
2018-07-04 00:01:00,-2.260E-01,4C000000*,-703.0,971.873,88,28.8,45.0,0.405,730.8,2.2,1.050*
2018-07-04 00:02:00,-3.496E-01,4C000000*,-703.0,971.469,89,28.9,44.9,0.404,730.5,2.2,1.050*
2018-07-04 00:03:00,-2.377E-01,4C000000*,-702.3,970.256,89,28.9,44.9,0.405,730.8,2.2,1.050*
2018-07-04 00:04:00,-3.039E-01,4C000000*,-702.6,969.852,89,28.9,45.1,0.404,730.5,2.2,1.050*
2018-07-04 00:05:00,-2.646E-01,4C000000*,-702.6,970.256,90,28.8,44.9,0.405,730.8,2.2,1.050*
2018-07-04 00:06:00,-2.653E-01,4C000000*,-702.6,971.469,90,28.8,45.1,0.404,730.5,2.2,1.050*
2018-07-04 00:07:00,-2.594E-01,4C000000*,-702.6,971.065,90,28.8,44.8,0.404,730.8,2.2,1.050*
2018-07-04 00:08:00,-2.065E-01,4C000000*,-702.6,971.065,90,28.8,45.1,0.404,730.5,2.2,1.050*
2018-07-04 00:09:00,-2.972E-01,4C000000*,-702.6,969.852,89,28.8,44.9,0.404,730.5,2.2,1.050*
2018-07-04 00:10:00,-1.994E-01,4C000000*,-702.6,970.661,90,28.8,45.0,0.404,730.8,2.2,1.050*
2018-07-04 00:11:00,-3.640E-01,4C000000*,-702.6,971.065,89,28.8,45.1,0.404,730.5,2.2,1.050*
2018-07-04 00:12:00,-2.683E-01,4C000000*,-702.6,969.448,89,28.9,45.0,0.405,730.8,2.2,1.050*
2018-07-04 00:13:00,-2.968E-01,4C000000*,-702.6,970.661,89,28.8,45.1,0.404,730.5,2.2,1.050*
2018-07-04 00:14:00,-2.735E-01,4C000000*,-702.6,971.469,90,28.8,44.8,0.404,730.5,2.2,1.050*
2018-07-04 00:15:00,-1.065E-01,4C000000*,-702.6,971.469,88,28.9,45.1,0.405,730.5,2.2,1.050*
2018-07-04 00:16:00,-1.767E-01,4C000000*,-703.0,972.682,89,28.8,44.9,0.404,730.5,2.2,1.050*
2018-07-04 00:17:00,-1.364E-01,4C000000*,-702.6,971.873,90,28.9,45.0,0.404,730.5,2.2,1.050*
2018-07-04 00:18:00,-1.516E-01,4C000000*,-702.6,972.682,90,28.8,45.0,0.404,730.5,2.2,1.050*
2018-07-04 00:19:00,-2.054E-01,4C000000*,-702.6,971.469,88,28.9,44.9,0.404,730.5,2.2,1.050*
2018-07-04 00:20:00,-2.377E-01,4C000000*,-702.6,971.873,90,28.8,45.1,0.404,730.5,2.2,1.050*
2018-07-04 00:21:00,-1.935E-01,4C000000*,-702.6,971.469,91,28.8,44.8,0.404,730.5,2.2,1.050*
2018-07-04 00:22:00,-1.655E-01,4C000000*,-703.0,970.661,90,28.8,45.2,0.404,730.8,2.2,1.050*
2018-07-04 00:23:00,-1.691E-01,4C000000*,-702.3,970.661,91,28.8,44.8,0.404,730.5,2.2,1.050*
2018-07-04 00:24:00,-1.962E-01,4C000000*,-702.6,971.873,89,28.9,45.1,0.404,730.5,2.2,1.050*
2018-07-04 00:25:00,-1.574E-01,4C000000*,-702.6,970.661,90,28.8,44.9,0.404,730.5,2.2,1.050*
2018-07-04 00:26:00,-1.433E-01,4C000000*,-702.6,972.682,92,28.8,45.0,0.405,730.5,2.2,1.050*
2018-07-04 00:27:00,-1.990E-01,4C000000*,-702.6,971.469,89,28.8,45.1,0.404,730.5,2.2,1.050*
2018-07-04 00:28:00,-1.785E-01,4C000000*,-702.6,971.469,90,28.9,44.9,0.404,730.8,2.2,1.050*
2018-07-04 00:29:00,-1.097E-01,4C000000*,-703.4,970.661,90,28.8,45.2,0.404,730.5,2.2,1.050*
2018-07-04 00:30:00,-9.703E-02,4C000000*,-702.6,969.852,90,28.8,44.8,0.404,730.5,2.2,1.050*
2018-07-04 00:31:00,-1.379E-01,4C000000*,-702.6,970.661,90,28.8,45.1,0.404,730.8,2.2,1.050*
2018-07-04 00:32:00,-1.165E-01,4C000000*,-702.6,970.661,91,28.8,44.9,0.404,730.5,2.2,1.050*
2018-07-04 00:33:00,-2.267E-01,4C000000*,-702.6,971.065,90,28.8,45.0,0.404,730.5,2.2,1.050*
2018-07-04 00:34:00,-2.087E-01,4C000000*,-702.6,970.661,89,28.9,45.1,0.404,730.5,2.2,1.050*
2018-07-04 00:35:00,-2.215E-01,4C000000*,-702.3,971.065,90,28.9,44.9,0.404,730.5,2.2,1.050*
2018-07-04 00:36:00,-1.890E-01,4C000000*,-702.6,969.852,88,28.8,45.1,0.404,730.5,2.2,1.050*
2018-07-04 00:37:00,-1.665E-01,4C000000*,-703.0,971.469,90,28.8,44.9,0.404,730.5,2.2,1.050*
2018-07-04 00:38:00,-1.327E-01,4C000000*,-702.6,971.873,90,28.9,45.2,0.405,730.5,2.2,1.050*
2018-07-04 00:39:00,-1.426E-01,4C000000*,-703.0,970.661,91,28.9,44.9,0.404,730.5,2.2,1.050*
2018-07-04 00:40:00,-1.652E-01,4C000000*,-702.6,971.065,90,28.9,45.0,0.405,730.2,2.2,1.050*
2018-07-04 00:41:00,-7.491E-02,4C000000*,-702.6,969.852,89,28.9,45.0,0.404,730.5,2.2,1.050*
2018-07-04 00:42:00,-1.737E-01,4C000000*,-703.0,971.065,89,28.9,45.0,0.405,730.5,2.2,1.050*
2018-07-04 00:43:00,-1.087E-01,4C000000*,-703.0,971.065,90,28.8,45.1,0.404,730.5,2.2,1.050*
2018-07-04 00:44:00,-2.506E-02,4C000000*,-702.6,970.256,90,28.8,44.9,0.404,730.5,2.2,1.050*
2018-07-04 00:45:00,-5.256E-02,4C000000*,-703.0,970.661,90,28.9,45.2,0.404,730.2,2.2,1.050*
2018-07-04 00:46:00,-1.422E-01,4C000000*,-702.6,970.661,91,28.9,44.8,0.404,730.2,2.2,1.050*
2018-07-04 00:47:00,-8.557E-02,4C000000*,-702.6,971.873,89,28.9,45.1,0.404,730.5,2.2,1.050*
2018-07-04 00:48:00,-1.258E-01,4C000000*,-702.6,970.661,90,28.9,45.0,0.404,730.2,2.2,1.050*
2018-07-04 00:49:00,-1.810E-01,4C000000*,-702.6,970.661,89,28.8,45.0,0.404,730.2,2.2,1.050*
2018-07-04 00:50:00,-1.582E-01,4C000000*,-702.6,970.661,90,28.9,45.1,0.404,730.5,2.2,1.050*
2018-07-04 00:51:00,-1.152E-01,4C000000*,-702.6,970.256,89,28.9,44.9,0.404,730.5,2.2,1.050*
2018-07-04 00:52:00,-1.203E-01,4C000000*,-702.6,970.661,90,28.9,45.2,0.404,730.2,2.2,1.050*
2018-07-04 00:53:00,-1.494E-01,4C000000*,-702.6,970.661,89,28.8,44.8,0.404,730.2,2.2,1.050*
2018-07-04 00:54:00,-3.069E-02,4C000000*,-703.0,970.661,90,28.9,45.1,0.404,730.5,2.2,1.050*
2018-07-04 00:55:00,-1.300E-01,4C000000*,-702.6,970.661,90,28.9,44.9,0.404,730.5,2.2,1.050*
2018-07-04 00:56:00,-6.020E-02,4C000000*,-703.0,971.469,90,28.9,45.0,0.404,730.5,2.2,1.050*
2018-07-04 00:57:00,-1.925E-01,4C000000*,-703.0,971.065,90,28.8,45.1,0.404,730.2,2.2,1.050*
2018-07-04 00:58:00,-7.789E-02,4C000000*,-702.6,969.852,89,28.9,44.9,0.404,730.2,2.2,1.050*
2018-07-04 00:59:00,-8.575E-02,4C000000*,-702.6,970.661,90,28.9,45.1,0.405,730.2,2.2,1.050*
2018-07-04 01:00:00,-1.369E-01,4C000000*,-702.6,971.469,90,28.8,44.9,0.404,730.2,2.2,1.050*
2018-07-04 01:01:00,-1.533E-01,4C000000*,-702.6,972.682,89,28.9,45.1,0.404,730.2,2.2,1.050*
2018-07-04 01:02:00,-1.025E-01,4C000000*,-702.6,970.256,89,28.9,44.8,0.404,730.2,2.2,1.050*
2018-07-04 01:03:00,8.639E-03,4C000000*,-702.6,971.873,90,28.8,45.0,0.404,730.5,2.2,1.050*
2018-07-04 01:04:00,-1.312E-02,4C000000*,-703.0,971.065,90,28.9,45.1,0.404,730.2,2.2,1.050*
2018-07-04 01:05:00,-3.450E-02,4C000000*,-702.6,970.661,89,28.9,45.0,0.404,730.2,2.2,1.050*
2018-07-04 01:06:00,-1.339E-01,4C000000*,-702.6,971.469,89,28.9,45.1,0.404,730.2,2.2,1.050*
2018-07-04 01:07:00,-2.799E-04,4C000000*,-702.6,971.469,90,28.9,44.8,0.404,730.2,2.2,1.050*
2018-07-04 01:08:00,-6.574E-02,4C000000*,-702.6,971.469,90,28.9,45.2,0.404,730.2,2.2,1.050*
2018-07-04 01:09:00,-3.780E-02,4C000000*,-702.6,969.448,90,28.8,44.8,0.405,730.2,2.2,1.050*
2018-07-04 01:10:00,-4.120E-02,4C000000*,-702.6,971.469,90,28.9,45.0,0.404,730.5,2.2,1.050*
2018-07-04 01:11:00,5.834E-02,4C000000*,-702.6,970.256,89,28.9,44.9,0.404,730.2,2.2,1.050*
2018-07-04 01:12:00,-8.167E-02,4C000000*,-702.6,970.256,90,28.9,44.9,0.404,729.9,2.2,1.050*
2018-07-04 01:13:00,-1.488E-01,4C000000*,-703.0,970.661,90,28.9,45.1,0.404,730.2,2.2,1.050*
2018-07-04 01:14:00,-8.717E-02,4C000000*,-703.0,970.661,90,28.9,44.8,0.404,730.2,2.2,1.050*
2018-07-04 01:15:00,-6.449E-02,4C000000*,-702.6,969.852,90,28.9,45.2,0.404,730.2,2.2,1.050*
2018-07-04 01:16:00,4.142E-03,4C000000*,-703.0,970.256,90,28.9,44.8,0.404,730.2,2.2,1.050*
2018-07-04 01:17:00,-1.401E-02,4C000000*,-703.0,971.469,88,28.9,45.1,0.404,730.2,2.2,1.050*
2018-07-04 01:18:00,-1.060E-01,4C000000*,-702.6,970.661,90,28.9,44.9,0.404,730.2,2.2,1.050*
2018-07-04 01:19:00,-1.533E-02,4C000000*,-703.0,971.065,89,28.9,45.0,0.404,730.2,2.2,1.050*
2018-07-04 01:20:00,-7.903E-03,4C000000*,-702.6,970.661,88,29.0,45.1,0.404,729.9,2.2,1.050*
2018-07-04 01:21:00,4.647E-02,4C000000*,-702.6,971.065,90,29.0,44.9,0.404,730.2,2.2,1.050*
2018-07-04 01:22:00,-9.706E-02,4C000000*,-703.0,971.065,89,28.9,45.1,0.404,730.2,2.2,1.050*
2018-07-04 01:23:00,-6.449E-02,4C000000*,-703.0,971.469,90,28.9,44.8,0.404,730.2,2.2,1.050*
2018-07-04 01:24:00,-5.926E-02,4C000000*,-702.6,970.256,89,28.9,45.1,0.404,730.2,2.2,1.050*
2018-07-04 01:25:00,-5.796E-03,4C000000*,-703.0,971.469,89,28.9,44.9,0.404,730.2,2.2,1.050*
2018-07-04 01:26:00,-1.549E-01,4C000000*,-702.6,971.065,91,28.9,45.0,0.405,730.2,2.2,1.050*
2018-07-04 01:27:00,-1.544E-02,4C000000*,-703.0,971.065,88,28.9,45.1,0.404,730.2,2.2,1.050*
2018-07-04 01:28:00,1.999E-02,4C000000*,-702.6,970.256,90,28.9,44.9,0.404,730.2,2.2,1.050*
2018-07-04 01:29:00,-7.997E-02,4C000000*,-702.6,971.065,90,28.9,45.1,0.404,730.2,2.2,1.050*
2018-07-04 01:30:00,-4.652E-02,4C000000*,-702.3,970.256,91,28.9,44.9,0.404,730.2,2.2,1.050*
2018-07-04 01:31:00,-8.494E-02,4C000000*,-702.6,971.469,90,29.0,45.2,0.404,730.2,2.2,1.050*
2018-07-04 01:32:00,-4.846E-03,4C000000*,-702.6,969.852,90,28.9,44.8,0.404,730.2,2.2,1.050*
2018-07-04 01:33:00,-1.103E-02,4C000000*,-702.6,971.065,91,29.0,45.0,0.404,730.2,2.2,1.050*
2018-07-04 01:34:00,-1.186E-02,4C000000*,-702.6,971.065,90,28.9,45.0,0.404,729.9,2.2,1.050*
2018-07-04 01:35:00,1.438E-03,4C000000*,-702.6,970.661,91,28.9,44.9,0.404,730.2,2.2,1.050*
2018-07-04 01:36:00,2.075E-03,4C000000*,-702.6,971.065,90,28.9,45.1,0.404,730.2,2.2,1.050*
2018-07-04 01:37:00,-1.069E-01,4C000000*,-702.6,970.661,90,29.0,44.9,0.404,730.2,2.2,1.050*
2018-07-04 01:38:00,-1.550E-01,4C000000*,-702.6,970.661,89,28.9,45.2,0.404,730.2,2.2,1.050*
2018-07-04 01:39:00,-9.820E-02,4C000000*,-703.0,969.852,90,28.9,44.8,0.404,729.9,2.2,1.050*
2018-07-04 01:40:00,-7.818E-02,4C000000*,-703.0,969.852,89,28.9,45.0,0.404,730.2,2.2,1.050*
2018-07-04 01:41:00,-4.499E-02,4C000000*,-702.6,971.873,90,28.9,44.9,0.404,729.9,2.2,1.050*
2018-07-04 01:42:00,4.724E-03,4C000000*,-702.6,970.256,90,29.0,45.0,0.404,730.2,2.2,1.050*
2018-07-04 01:43:00,-3.229E-02,4C000000*,-702.6,971.065,90,28.9,45.1,0.404,729.9,2.2,1.050*
2018-07-04 01:44:00,3.152E-02,4C000000*,-703.0,971.469,91,28.9,44.9,0.404,730.2,2.2,1.050*
2018-07-04 01:45:00,-1.131E-02,4C000000*,-702.6,972.278,91,28.9,45.2,0.404,730.2,2.2,1.050*
2018-07-04 01:46:00,-4.538E-02,4C000000*,-702.6,971.469,89,28.9,44.8,0.404,730.2,2.2,1.050*
2018-07-04 01:47:00,7.297E-02,4C000000*,-702.6,971.065,90,28.9,45.0,0.404,730.2,2.2,1.050*
2018-07-04 01:48:00,-4.170E-02,4C000000*,-702.6,970.661,89,29.0,45.0,0.404,730.2,2.2,1.050*
2018-07-04 01:49:00,-1.428E-01,4C000000*,-702.6,971.065,89,29.1,45.0,0.404,730.2,2.2,1.050*
2018-07-04 01:50:00,-5.895E-02,4C000000*,-702.6,970.661,90,29.0,45.1,0.404,730.2,2.2,1.050*
2018-07-04 01:51:00,-7.588E-02,4C000000*,-702.6,970.661,90,29.0,44.9,0.404,730.2,2.2,1.050*
2018-07-04 01:52:00,-8.363E-02,4C000000*,-702.6,970.256,89,29.1,45.1,0.404,730.2,2.2,1.050*
2018-07-04 01:53:00,-3.364E-02,4C000000*,-703.0,971.469,90,29.0,44.8,0.404,730.2,2.2,1.050*
2018-07-04 01:54:00,4.000E-02,4C000000*,-702.6,970.661,89,29.0,45.0,0.404,730.2,2.2,1.050*
2018-07-04 01:55:00,-4.087E-02,4C000000*,-702.6,969.852,90,29.0,45.1,0.404,729.9,2.2,1.050*
2018-07-04 01:56:00,-7.342E-02,4C000000*,-703.0,970.661,89,29.0,44.9,0.404,729.9,2.2,1.050*
2018-07-04 01:57:00,1.095E-02,4C000000*,-703.0,970.256,89,29.0,45.1,0.404,730.2,2.2,1.050*
2018-07-04 01:58:00,-1.170E-01,4C000000*,-702.6,971.469,90,29.0,44.8,0.404,730.2,2.2,1.050*
2018-07-04 01:59:00,-2.298E-04,4C000000*,-702.6,971.873,91,29.1,45.0,0.404,730.2,2.2,1.050*
2018-07-04 02:00:00,-1.115E-02,4C000000*,-703.0,969.852,89,29.0,44.9,0.404,730.2,2.2,1.050*
2018-07-04 02:01:00,-3.023E-02,4C000000*,-703.0,969.852,90,29.0,45.0,0.404,730.2,2.2,1.050*
2018-07-04 02:02:00,-4.503E-02,4C000000*,-702.6,970.661,90,29.1,45.1,0.404,730.2,2.2,1.050*
2018-07-04 02:03:00,-4.047E-02,4C000000*,-702.6,970.256,90,29.0,45.0,0.404,730.2,2.2,1.050*
2018-07-04 02:04:00,-1.037E-01,4C000000*,-702.6,970.661,90,29.1,45.1,0.404,730.2,2.2,1.050*
2018-07-04 02:05:00,-9.293E-02,4C000000*,-702.6,969.852,91,29.0,44.8,0.404,730.2,2.2,1.050*
2018-07-04 02:06:00,-1.101E-01,4C000000*,-702.6,970.256,89,29.1,45.2,0.404,730.2,2.2,1.050*
2018-07-04 02:07:00,-6.269E-02,4C000000*,-702.3,969.852,89,29.0,44.9,0.404,730.2,2.2,1.050*
2018-07-04 02:08:00,-5.648E-02,4C000000*,-702.6,970.256,90,29.1,45.1,0.404,730.2,2.2,1.050*
2018-07-04 02:09:00,-1.837E-01,4C000000*,-702.6,969.852,89,29.1,44.9,0.404,729.9,2.2,1.050*
2018-07-04 02:10:00,1.034E-02,4C000000*,-703.0,970.256,89,29.1,44.9,0.404,730.2,2.2,1.050*
2018-07-04 02:11:00,-1.356E-01,4C000000*,-702.6,969.448,90,29.1,45.1,0.404,729.9,2.2,1.050*
2018-07-04 02:12:00,-6.332E-02,4C000000*,-702.6,970.256,90,29.1,44.9,0.405,730.2,2.2,1.050*
2018-07-04 02:13:00,-6.780E-02,4C000000*,-703.0,970.661,90,29.1,45.2,0.404,730.2,2.2,1.050*
2018-07-04 02:14:00,-7.379E-02,4C000000*,-703.0,970.256,89,29.1,44.8,0.404,730.2,2.2,1.050*
2018-07-04 02:15:00,-1.480E-01,4C000000*,-702.6,971.065,90,29.1,45.1,0.404,730.2,2.2,1.050*
2018-07-04 02:16:00,-2.681E-02,4C000000*,-702.6,971.065,89,29.1,44.9,0.404,730.2,2.2,1.050*
2018-07-04 02:17:00,2.316E-02,4C000000*,-703.0,971.469,90,29.1,44.9,0.404,730.2,2.2,1.050*
2018-07-04 02:18:00,-7.465E-02,4C000000*,-702.6,970.661,90,29.1,45.2,0.404,729.9,2.2,1.050*
2018-07-04 02:19:00,-2.535E-02,4C000000*,-702.6,971.065,90,29.1,44.8,0.404,730.2,2.2,1.050*
2018-07-04 02:20:00,-1.189E-01,4C000000*,-702.6,970.256,87,29.1,45.0,0.404,730.2,2.2,1.050*
2018-07-04 02:21:00,-9.384E-02,4C000000*,-702.6,971.065,91,29.1,45.0,0.404,730.2,2.2,1.050*
2018-07-04 02:22:00,6.284E-03,4C000000*,-703.0,970.256,88,29.1,45.0,0.404,730.2,2.2,1.050*
2018-07-04 02:23:00,-1.270E-01,4C000000*,-702.6,970.661,89,29.1,45.1,0.404,729.9,2.2,1.050*
2018-07-04 02:24:00,-1.124E-01,4C000000*,-702.6,969.852,89,29.1,44.8,0.404,730.2,2.2,1.050*
2018-07-04 02:25:00,-1.310E-01,4C000000*,-702.6,971.065,90,29.2,45.2,0.404,730.2,2.2,1.050*
2018-07-04 02:26:00,-5.436E-02,4C000000*,-702.3,971.873,91,29.2,44.8,0.403,730.2,2.2,1.050*
2018-07-04 02:27:00,4.015E-02,4C000000*,-702.6,971.469,91,29.1,45.0,0.404,730.2,2.2,1.050*
2018-07-04 02:28:00,-9.349E-03,4C000000*,-702.6,970.256,90,29.2,44.9,0.404,729.9,2.2,1.050*
2018-07-04 02:29:00,-2.422E-02,4C000000*,-702.6,970.256,89,29.1,45.0,0.404,730.2,2.2,1.050*
2018-07-04 02:30:00,-2.636E-02,4C000000*,-702.6,970.256,89,29.2,45.1,0.404,729.9,2.2,1.050*
2018-07-04 02:31:00,-2.014E-01,4C000000*,-702.6,971.469,91,29.2,44.9,0.404,730.2,2.2,1.050*
2018-07-04 02:32:00,-3.391E-02,4C000000*,-703.0,969.448,90,29.1,45.1,0.404,730.2,2.2,1.050*
2018-07-04 02:33:00,-1.411E-02,4C000000*,-702.6,970.661,90,29.1,44.8,0.404,729.9,2.2,1.050*
2018-07-04 02:34:00,-1.207E-01,4C000000*,-702.6,970.661,89,29.2,45.1,0.404,729.9,2.2,1.050*
2018-07-04 02:35:00,-1.258E-01,4C000000*,-702.3,970.256,89,29.3,44.8,0.404,729.9,2.2,1.050*
2018-07-04 02:36:00,-7.819E-02,4C000000*,-703.0,970.256,89,29.2,45.0,0.404,730.2,2.2,1.050*
2018-07-04 02:37:00,-6.104E-02,4C000000*,-703.0,971.469,92,29.2,45.1,0.404,729.9,2.2,1.050*
2018-07-04 02:38:00,-6.123E-02,4C000000*,-702.6,971.065,90,29.1,45.0,0.404,730.2,2.2,1.050*
2018-07-04 02:39:00,-8.063E-02,4C000000*,-702.6,971.065,90,29.2,45.1,0.404,729.9,2.2,1.050*
2018-07-04 02:40:00,-1.575E-01,4C000000*,-703.0,972.278,91,29.2,44.8,0.404,730.2,2.2,1.050*
2018-07-04 02:41:00,-9.347E-02,4C000000*,-702.6,970.256,90,29.2,45.1,0.404,730.2,2.2,1.050*
2018-07-04 02:42:00,-1.190E-01,4C000000*,-702.6,971.065,89,29.2,44.8,0.404,729.9,2.2,1.050*
2018-07-04 02:43:00,-1.208E-01,4C000000*,-702.6,970.661,90,29.2,45.1,0.404,730.2,2.2,1.050*
2018-07-04 02:44:00,-1.092E-01,4C000000*,-703.0,971.065,89,29.2,44.9,0.404,729.9,2.2,1.050*
2018-07-04 02:45:00,3.272E-02,4C000000*,-702.6,971.469,90,29.2,45.0,0.404,729.9,2.2,1.050*
2018-07-04 02:46:00,-1.210E-01,4C000000*,-702.6,971.065,90,29.3,45.1,0.404,729.9,2.2,1.050*
2018-07-04 02:47:00,-3.715E-02,4C000000*,-702.6,970.661,88,29.2,44.9,0.404,730.2,2.2,1.050*
2018-07-04 02:48:00,-7.401E-02,4C000000*,-702.6,970.256,89,29.2,45.2,0.404,730.2,2.2,1.050*
2018-07-04 02:49:00,-1.033E-01,4C000000*,-702.6,971.469,90,29.3,44.8,0.404,729.9,2.2,1.050*
2018-07-04 02:50:00,-3.413E-02,4C000000*,-702.6,972.278,91,29.3,45.0,0.404,729.9,2.2,1.050*
2018-07-04 02:51:00,-5.459E-02,4C000000*,-702.6,971.873,90,29.2,44.9,0.404,730.2,2.2,1.050*
2018-07-04 02:52:00,-1.904E-02,4C000000*,-703.0,971.065,90,29.3,45.0,0.404,729.9,2.2,1.050*
2018-07-04 02:53:00,-1.368E-01,4C000000*,-702.6,971.469,91,29.3,45.1,0.404,730.2,2.2,1.050*
2018-07-04 02:54:00,-3.813E-02,4C000000*,-702.3,970.256,90,29.3,44.8,0.404,730.2,2.2,1.050*
2018-07-04 02:55:00,-1.140E-01,4C000000*,-703.0,970.661,89,29.3,45.2,0.404,729.9,2.2,1.050*
2018-07-04 02:56:00,-4.221E-02,4C000000*,-702.3,970.661,91,29.3,44.8,0.404,729.9,2.2,1.050*
2018-07-04 02:57:00,-5.015E-02,4C000000*,-702.6,971.065,88,29.3,45.0,0.404,730.2,2.2,1.050*
2018-07-04 02:58:00,-8.096E-02,4C000000*,-703.0,970.256,90,29.3,44.9,0.404,729.9,2.2,1.050*
2018-07-04 02:59:00,-7.441E-02,4C000000*,-702.3,970.256,90,29.4,45.0,0.404,730.2,2.2,1.050*
2018-07-04 03:00:00,-1.103E-01,4C000000*,-703.0,971.065,90,29.3,45.1,0.404,729.9,2.2,1.050*
2018-07-04 03:01:00,-5.151E-02,4C000000*,-702.6,970.661,90,29.3,44.9,0.404,729.9,2.2,1.050*
2018-07-04 03:02:00,-3.553E-02,4C000000*,-702.6,971.065,90,29.3,45.1,0.404,729.6,2.2,1.050*
2018-07-04 03:03:00,-7.623E-02,4C000000*,-702.3,971.065,91,29.3,44.9,0.404,730.2,2.2,1.050*
2018-07-04 03:04:00,-8.374E-02,4C000000*,-702.6,969.852,90,29.4,45.2,0.404,729.9,2.2,1.050*
2018-07-04 03:05:00,-1.539E-01,4C000000*,-702.3,971.469,90,29.4,44.9,0.404,729.9,2.2,1.050*
2018-07-04 03:06:00,1.526E-02,4C000000*,-703.0,971.469,90,29.4,45.0,0.404,729.9,2.2,1.050*
2018-07-04 03:07:00,-8.299E-02,4C000000*,-702.6,970.256,90,29.3,45.0,0.404,729.9,2.2,1.050*
2018-07-04 03:08:00,1.785E-02,4C000000*,-703.0,969.852,91,29.3,45.0,0.404,729.9,2.2,1.050*
2018-07-04 03:09:00,-5.875E-02,4C000000*,-703.0,970.661,91,29.4,45.0,0.404,729.9,2.2,1.050*
2018-07-04 03:10:00,-3.724E-02,4C000000*,-702.6,970.661,89,29.4,44.8,0.404,729.9,2.2,1.050*
2018-07-04 03:11:00,-1.276E-01,4C000000*,-702.6,969.852,90,29.4,45.2,0.404,729.9,2.2,1.050*
2018-07-04 03:12:00,-9.970E-02,4C000000*,-702.6,970.661,90,29.4,44.8,0.404,729.9,2.2,1.050*
2018-07-04 03:13:00,-7.951E-02,4C000000*,-703.0,971.873,89,29.4,45.2,0.404,729.9,2.2,1.050*
2018-07-04 03:14:00,-4.126E-02,4C000000*,-702.6,970.256,90,29.4,44.9,0.404,729.9,2.2,1.050*
2018-07-04 03:15:00,-5.893E-02,4C000000*,-703.0,969.852,89,29.4,45.0,0.404,729.9,2.2,1.050*
2018-07-04 03:16:00,-4.714E-02,4C000000*,-702.6,971.469,91,29.4,45.1,0.404,729.6,2.2,1.050*
2018-07-04 03:17:00,-1.530E-01,4C000000*,-702.6,971.065,87,29.5,44.8,0.404,729.9,2.2,1.050*
2018-07-04 03:18:00,-7.365E-02,4C000000*,-702.6,970.256,90,29.4,45.2,0.404,729.6,2.2,1.050*
2018-07-04 03:19:00,-3.537E-02,4C000000*,-702.6,970.256,89,29.4,44.8,0.404,729.9,2.2,1.050*
2018-07-04 03:20:00,-8.896E-02,4C000000*,-702.6,971.065,90,29.4,45.1,0.404,729.9,2.2,1.050*
2018-07-04 03:21:00,-1.632E-01,4C000000*,-703.0,971.065,91,29.5,44.9,0.404,729.9,2.2,1.050*
2018-07-04 03:22:00,1.468E-02,4C000000*,-702.3,971.065,90,29.5,45.0,0.404,729.9,2.2,1.050*
2018-07-04 03:23:00,-4.472E-02,4C000000*,-702.6,971.873,91,29.5,45.1,0.404,729.9,2.2,1.050*
2018-07-04 03:24:00,-1.215E-01,4C000000*,-703.0,971.065,89,29.5,44.9,0.404,729.9,2.2,1.050*
2018-07-04 03:25:00,-9.710E-03,4C000000*,-702.6,970.661,90,29.5,45.1,0.404,729.9,2.2,1.050*
2018-07-04 03:26:00,-4.135E-02,4C000000*,-702.3,969.448,89,29.5,44.9,0.404,729.9,2.2,1.050*
2018-07-04 03:27:00,-1.036E-01,4C000000*,-702.6,971.469,90,29.5,45.1,0.404,729.9,2.2,1.050*
2018-07-04 03:28:00,-5.980E-02,4C000000*,-703.0,970.256,90,29.5,44.9,0.404,729.6,2.2,1.050*
2018-07-04 03:29:00,-4.505E-02,4C000000*,-702.6,970.256,89,29.5,45.0,0.404,729.6,2.2,1.050*
2018-07-04 03:30:00,-8.162E-02,4C000000*,-702.6,969.448,90,29.5,45.1,0.404,729.6,2.2,1.050*
2018-07-04 03:31:00,-7.247E-02,4C000000*,-703.0,971.469,89,29.5,44.9,0.404,729.9,2.2,1.050*
2018-07-04 03:32:00,-7.968E-02,4C000000*,-703.0,970.256,89,29.5,45.0,0.404,729.6,2.2,1.050*
2018-07-04 03:33:00,2.921E-02,4C000000*,-702.6,971.873,89,29.5,44.8,0.404,729.9,2.2,1.050*
2018-07-04 03:34:00,3.033E-03,4C000000*,-702.6,970.256,89,29.5,45.2,0.404,729.9,2.2,1.050*
2018-07-04 03:35:00,-6.346E-02,4C000000*,-703.0,970.256,90,29.6,44.9,0.404,729.9,2.2,1.050*
2018-07-04 03:36:00,-8.839E-02,4C000000*,-702.6,971.873,91,29.6,45.1,0.404,729.9,2.1,1.050*
2018-07-04 03:37:00,-6.626E-02,4C000000*,-703.0,971.065,89,29.5,45.0,0.404,729.9,2.1,1.050*
2018-07-04 03:38:00,-6.537E-02,4C000000*,-702.6,971.469,88,29.6,45.0,0.404,729.9,2.1,1.050*
2018-07-04 03:39:00,-3.092E-02,4C000000*,-702.6,971.065,90,29.6,45.1,0.404,729.9,2.1,1.050*
2018-07-04 03:40:00,-2.206E-02,4C000000*,-702.6,971.065,90,29.6,44.9,0.404,729.9,2.1,1.050*
2018-07-04 03:41:00,-6.213E-02,4C000000*,-702.6,969.852,89,29.6,45.2,0.404,729.9,2.1,1.050*
2018-07-04 03:42:00,-1.171E-02,4C000000*,-702.3,971.065,90,29.6,44.8,0.404,729.9,2.1,1.050*
2018-07-04 03:43:00,-7.437E-02,4C000000*,-702.3,970.661,90,29.6,45.1,0.404,729.9,2.1,1.050*
2018-07-04 03:44:00,-7.469E-02,4C000000*,-702.6,969.852,89,29.6,44.9,0.404,729.9,2.1,1.050*
2018-07-04 03:45:00,3.230E-03,4C000000*,-702.6,969.852,90,29.6,45.0,0.404,729.9,2.1,1.050*
2018-07-04 03:46:00,-5.964E-02,4C000000*,-702.6,971.873,90,29.6,45.1,0.404,729.9,2.1,1.050*
2018-07-04 03:47:00,3.497E-02,4C000000*,-703.0,970.256,90,29.6,44.9,0.404,730.2,2.1,1.050*
2018-07-04 03:48:00,1.441E-02,4C000000*,-702.6,969.852,90,29.6,45.2,0.404,729.9,2.1,1.050*
2018-07-04 03:49:00,-4.636E-02,4C000000*,-702.6,970.661,90,29.6,44.9,0.404,729.9,2.1,1.050*
2018-07-04 03:50:00,-2.797E-02,4C000000*,-702.6,970.661,88,29.7,45.1,0.404,729.9,2.1,1.050*
2018-07-04 03:51:00,-9.900E-03,4C000000*,-702.6,971.469,89,29.6,44.8,0.404,729.9,2.1,1.050*
2018-07-04 03:52:00,6.565E-02,4C000000*,-702.6,970.256,90,29.6,45.0,0.404,729.9,2.1,1.050*
2018-07-04 03:53:00,8.077E-02,4C000000*,-703.0,970.256,90,29.6,45.0,0.404,729.9,2.1,1.050*
2018-07-04 03:54:00,8.482E-04,4C000000*,-702.6,969.852,90,29.6,44.9,0.404,729.9,2.1,1.050*
2018-07-04 03:55:00,-3.791E-02,4C000000*,-702.6,970.661,91,29.7,45.1,0.404,729.6,2.1,1.050*
2018-07-04 03:56:00,2.593E-02,4C000000*,-703.0,971.065,90,29.6,44.8,0.404,729.9,2.1,1.050*
2018-07-04 03:57:00,-3.294E-03,4C000000*,-702.6,970.661,91,29.7,45.2,0.404,729.9,2.1,1.050*
2018-07-04 03:58:00,4.289E-02,4C000000*,-702.6,969.852,89,29.6,44.9,0.404,729.9,2.2,1.050*
2018-07-04 03:59:00,5.126E-02,4C000000*,-702.6,971.469,91,29.7,45.1,0.404,729.9,2.1,1.050*
2018-07-04 04:00:00,7.753E-02,4C000000*,-702.6,969.448,89,29.6,45.0,0.404,729.9,2.1,1.050*
2018-07-04 04:01:00,-5.824E-02,4C000000*,-702.6,969.852,89,29.5,44.9,0.404,729.9,2.2,1.050*
2018-07-04 04:02:00,3.051E-02,4C000000*,-703.0,969.448,90,29.7,45.1,0.404,729.9,2.1,1.050*
2018-07-04 04:03:00,1.905E-02,4C000000*,-702.6,970.256,90,29.6,44.9,0.404,729.9,2.1,1.050*
2018-07-04 04:04:00,5.122E-02,4C000000*,-703.0,970.256,89,29.7,45.3,0.404,729.9,2.1,1.050*
2018-07-04 04:05:00,3.601E-02,4C000000*,-702.6,970.661,90,29.6,44.8,0.404,729.9,2.1,1.050*
2018-07-04 04:06:00,6.518E-02,4C000000*,-702.6,969.448,90,29.6,45.1,0.404,729.9,2.1,1.050*
2018-07-04 04:07:00,-8.853E-02,4C000000*,-702.6,970.661,90,29.6,44.9,0.404,729.9,2.1,1.050*
2018-07-04 04:08:00,-9.570E-03,4C000000*,-702.6,971.469,90,29.6,45.0,0.404,729.9,2.1,1.050*
2018-07-04 04:09:00,-1.867E-03,4C000000*,-702.6,970.661,89,29.6,45.1,0.404,729.9,2.1,1.050*
2018-07-04 04:10:00,4.858E-02,4C000000*,-702.6,970.661,90,29.7,44.9,0.404,729.9,2.1,1.050*
2018-07-04 04:11:00,-3.741E-02,4C000000*,-702.6,969.852,90,29.7,45.2,0.404,729.9,2.1,1.050*
2018-07-04 04:12:00,9.652E-02,4C000000*,-702.6,970.256,90,29.7,44.8,0.404,729.6,2.1,1.050*
2018-07-04 04:13:00,1.551E-01,4C000000*,-702.3,969.448,90,29.8,45.1,0.404,729.9,2.1,1.050*
2018-07-04 04:14:00,5.705E-02,4C000000*,-703.0,970.256,90,29.7,44.8,0.404,729.9,2.1,1.050*
2018-07-04 04:15:00,-1.141E-02,4C000000*,-702.6,969.852,89,29.7,45.0,0.404,729.9,2.1,1.050*